Time,TemperatureF,DewpointF,PressureIn,WindDirection,WindDirectionDegrees,WindSpeedMPH,WindSpeedGustMPH,Humidity,HourlyPrecipIn,Conditions,Clouds,dailyrainin,SoftwareType,DateUTC
2013-01-07 00:00:00,50.4,50.1,30.11,West,260,0.0,0.0,99,0.01,,---,0.33,VWS V14.01,2013-01-07 05:00:00,
2013-01-07 00:01:00,50.4,50.1,30.11,West,260,0.0,0.0,99,0.01,,---,0.00,VWS V14.01,2013-01-07 05:01:00,
2013-01-07 00:06:00,50.4,50.1,30.11,West,260,0.0,0.0,99,0.01,,---,0.00,VWS V14.01,2013-01-07 05:06:00,
2013-01-07 00:11:00,50.4,50.1,30.11,West,260,0.0,0.0,99,0.01,,---,0.00,VWS V14.01,2013-01-07 05:11:00,
2013-01-07 00:16:00,50.4,50.1,30.11,West,260,0.0,0.0,99,0.01,,---,0.00,VWS V14.01,2013-01-07 05:16:00,
2013-01-07 00:21:00,50.4,50.1,30.11,West,260,0.0,0.0,99,0.01,,---,0.00,VWS V14.01,2013-01-07 05:21:00,
2013-01-07 00:26:00,50.4,50.1,30.11,West,260,0.0,0.0,99,0.01,,---,0.00,VWS V14.01,2013-01-07 05:26:00,
2013-01-07 00:30:00,50.4,50.1,30.12,West,260,0.0,0.0,99,0.01,,---,0.00,VWS V14.01,2013-01-07 05:30:00,
2013-01-07 00:31:00,50.2,49.9,30.12,West,260,0.0,0.0,99,0.00,,---,0.00,VWS V14.01,2013-01-07 05:31:00,
2013-01-07 00:36:00,50.2,49.9,30.12,West,260,0.0,0.0,99,0.00,,---,0.00,VWS V14.01,2013-01-07 05:36:00,
2013-01-07 00:41:00,50.4,50.4,30.12,West,260,0.0,0.0,100,0.00,,---,0.00,VWS V14.01,2013-01-07 05:41:00,
2013-01-07 00:46:00,50.4,50.4,30.12,West,260,0.0,0.0,100,0.00,,---,0.00,VWS V14.01,2013-01-07 05:46:00,
2013-01-07 00:51:00,50.4,50.4,30.12,West,260,0.0,0.0,100,0.00,,---,0.00,VWS V14.01,2013-01-07 05:51:00,
2013-01-07 00:56:00,50.4,50.4,30.12,West,260,0.0,0.0,100,0.00,,---,0.00,VWS V14.01,2013-01-07 05:56:00,
2013-01-07 01:00:00,50.4,50.4,30.12,West,260,0.0,0.0,100,0.00,,---,0.00,VWS V14.01,2013-01-07 06:00:00,
2013-01-07 01:01:00,50.4,50.4,30.12,West,260,0.0,0.0,100,0.00,,---,0.00,VWS V14.01,2013-01-07 06:01:00,
2013-01-07 01:06:00,50.4,50.4,30.12,West,260,0.0,0.0,100,0.00,,---,0.00,VWS V14.01,2013-01-07 06:06:00,
2013-01-07 01:11:00,50.4,50.4,30.12,West,260,0.0,0.0,100,0.00,,---,0.00,VWS V14.01,2013-01-07 06:11:00,
2013-01-07 01:16:00,50.4,50.4,30.12,West,260,0.0,0.0,100,0.00,,---,0.00,VWS V14.01,2013-01-07 06:16:00,
2013-01-07 01:21:00,50.5,50.2,30.12,West,260,0.0,0.0,99,0.00,,---,0.00,VWS V14.01,2013-01-07 06:21:00,
2013-01-07 01:26:00,50.5,50.2,30.12,West,260,0.0,0.0,99,0.00,,---,0.00,VWS V14.01,2013-01-07 06:26:00,
2013-01-07 01:30:00,50.5,50.2,30.12,West,260,0.0,0.0,99,0.00,,---,0.00,VWS V14.01,2013-01-07 06:30:00,
2013-01-07 01:31:00,50.5,50.2,30.12,West,260,0.0,0.0,99,0.00,,---,0.00,VWS V14.01,2013-01-07 06:31:00,
2013-01-07 01:36:00,50.5,50.2,30.12,West,260,0.0,0.0,99,0.00,,---,0.00,VWS V14.01,2013-01-07 06:36:00,
2013-01-07 01:41:00,50.5,50.2,30.12,West,260,0.0,0.0,99,0.00,,---,0.00,VWS V14.01,2013-01-07 06:41:00,
2013-01-07 01:46:00,50.5,50.2,30.11,West,260,0.0,1.0,99,0.00,,---,0.00,VWS V14.01,2013-01-07 06:46:00,
2013-01-07 01:51:00,50.5,50.0,30.11,West,260,0.0,1.0,98,0.00,,---,0.00,VWS V14.01,2013-01-07 06:51:00,
2013-01-07 01:56:00,50.5,50.0,30.11,West,260,0.0,1.0,98,0.00,,---,0.00,VWS V14.01,2013-01-07 06:56:00,
2013-01-07 02:00:00,50.5,50.0,30.11,West,260,0.0,1.0,98,0.00,,---,0.00,VWS V14.01,2013-01-07 07:00:00,
2013-01-07 02:01:00,50.5,50.0,30.11,West,260,0.0,0.0,98,0.00,,---,0.00,VWS V14.01,2013-01-07 07:01:00,
2013-01-07 02:06:00,50.5,50.0,30.11,West,260,0.0,0.0,98,0.00,,---,0.00,VWS V14.01,2013-01-07 07:06:00,
2013-01-07 02:11:00,50.4,49.6,30.11,West,260,1.0,2.0,97,0.00,,---,0.00,VWS V14.01,2013-01-07 07:11:00,
2013-01-07 02:16:00,50.4,49.6,30.11,West,260,2.0,2.0,97,0.00,,---,0.00,VWS V14.01,2013-01-07 07:16:00,
2013-01-07 02:21:00,50.4,49.6,30.11,West,260,0.0,2.0,97,0.00,,---,0.00,VWS V14.01,2013-01-07 07:21:00,
2013-01-07 02:26:00,50.2,49.1,30.11,West,260,0.0,2.0,96,0.00,,---,0.00,VWS V14.01,2013-01-07 07:26:00,
2013-01-07 02:30:00,50.2,49.1,30.11,West,260,0.0,2.0,96,0.00,,---,0.00,VWS V14.01,2013-01-07 07:30:00,
2013-01-07 02:31:00,50.2,49.1,30.11,West,264,1.0,3.0,96,0.00,,---,0.00,VWS V14.01,2013-01-07 07:31:00,
2013-01-07 02:36:00,50.1,48.7,30.11,West,264,0.0,3.0,95,0.00,,---,0.00,VWS V14.01,2013-01-07 07:36:00,
2013-01-07 02:41:00,50.1,48.4,30.11,West,264,0.0,3.0,94,0.00,,---,0.00,VWS V14.01,2013-01-07 07:41:00,
2013-01-07 02:46:00,50.1,48.4,30.11,West,264,0.0,3.0,94,0.00,,---,0.00,VWS V14.01,2013-01-07 07:46:00,
2013-01-07 02:51:00,50.1,48.4,30.11,West,264,0.0,3.0,94,0.00,,---,0.00,VWS V14.01,2013-01-07 07:51:00,
2013-01-07 02:56:00,50.1,48.2,30.11,West,264,0.0,3.0,93,0.00,,---,0.00,VWS V14.01,2013-01-07 07:56:00,
2013-01-07 03:00:00,50.1,48.2,30.12,West,264,0.0,3.0,93,0.00,,---,0.00,VWS V14.01,2013-01-07 08:00:00,
2013-01-07 03:01:00,50.1,48.2,30.12,West,264,0.0,0.0,93,0.00,,---,0.00,VWS V14.01,2013-01-07 08:01:00,
2013-01-07 03:06:00,49.9,47.7,30.12,West,267,1.0,3.0,92,0.00,,---,0.00,VWS V14.01,2013-01-07 08:06:00,
2013-01-07 03:11:00,50.1,47.9,30.12,WSW,256,0.0,5.0,92,0.00,,---,0.00,VWS V14.01,2013-01-07 08:11:00,
2013-01-07 03:16:00,50.1,47.6,30.12,West,261,0.0,5.0,91,0.00,,---,0.00,VWS V14.01,2013-01-07 08:16:00,
2013-01-07 03:21:00,50.1,47.6,30.12,West,274,0.0,5.0,91,0.00,,---,0.00,VWS V14.01,2013-01-07 08:21:00,
2013-01-07 03:26:00,50.1,47.6,30.12,West,274,0.0,5.0,91,0.00,,---,0.00,VWS V14.01,2013-01-07 08:26:00,
2013-01-07 03:30:00,49.9,47.4,30.12,WNW,301,0.0,5.0,91,0.00,,---,0.00,VWS V14.01,2013-01-07 08:30:00,
2013-01-07 03:31:00,49.9,47.4,30.12,WNW,301,0.0,0.0,91,0.00,,---,0.00,VWS V14.01,2013-01-07 08:31:00,
2013-01-07 03:36:00,49.9,47.4,30.12,West,271,2.0,5.0,91,0.00,,---,0.00,VWS V14.01,2013-01-07 08:36:00,
2013-01-07 03:41:00,49.8,47.0,30.12,West,272,0.0,5.0,90,0.00,,---,0.00,VWS V14.01,2013-01-07 08:41:00,
2013-01-07 03:46:00,49.8,47.0,30.11,West,281,0.0,5.0,90,0.00,,---,0.00,VWS V14.01,2013-01-07 08:46:00,
2013-01-07 03:51:00,49.8,47.0,30.11,WSW,257,0.0,5.0,90,0.00,,---,0.00,VWS V14.01,2013-01-07 08:51:00,
2013-01-07 03:56:00,49.6,47.1,30.11,WSW,257,0.0,5.0,91,0.00,,---,0.00,VWS V14.01,2013-01-07 08:56:00,
2013-01-07 04:00:00,49.5,47.0,30.11,WSW,257,0.0,5.0,91,0.00,,---,0.00,VWS V14.01,2013-01-07 09:00:00,
2013-01-07 04:01:00,49.5,47.0,30.11,WSW,257,0.0,0.0,91,0.00,,---,0.00,VWS V14.01,2013-01-07 09:01:00,
2013-01-07 04:06:00,49.4,46.9,30.11,WNW,282,1.0,3.0,91,0.00,,---,0.00,VWS V14.01,2013-01-07 09:06:00,
2013-01-07 04:11:00,49.2,46.4,30.11,West,272,2.0,3.0,90,0.00,,---,0.00,VWS V14.01,2013-01-07 09:11:00,
2013-01-07 04:16:00,49.2,46.4,30.12,West,280,0.0,3.0,90,0.00,,---,0.00,VWS V14.01,2013-01-07 09:16:00,
2013-01-07 04:21:00,49.2,46.4,30.12,West,278,1.0,3.0,90,0.00,,---,0.00,VWS V14.01,2013-01-07 09:21:00,
2013-01-07 04:26:00,49.1,46.0,30.12,WNW,288,2.0,3.0,89,0.00,,---,0.00,VWS V14.01,2013-01-07 09:26:00,
2013-01-07 04:30:00,48.9,45.8,30.12,WSW,248,0.0,6.0,89,0.00,,---,0.00,VWS V14.01,2013-01-07 09:30:00,
2013-01-07 04:31:00,48.9,45.5,30.12,WSW,248,0.0,1.0,88,0.00,,---,0.00,VWS V14.01,2013-01-07 09:31:00,
2013-01-07 04:36:00,48.8,45.4,30.12,West,278,3.0,6.0,88,0.00,,---,0.00,VWS V14.01,2013-01-07 09:36:00,
2013-01-07 04:41:00,48.8,45.4,30.12,West,265,0.0,6.0,88,0.00,,---,0.00,VWS V14.01,2013-01-07 09:41:00,
2013-01-07 04:46:00,48.6,45.2,30.12,WNW,282,0.0,6.0,88,0.00,,---,0.00,VWS V14.01,2013-01-07 09:46:00,
2013-01-07 04:51:00,48.5,45.1,30.12,WSW,257,2.0,6.0,88,0.00,,---,0.00,VWS V14.01,2013-01-07 09:51:00,
2013-01-07 04:56:00,48.5,44.8,30.12,West,274,0.0,6.0,87,0.00,,---,0.00,VWS V14.01,2013-01-07 09:56:00,
2013-01-07 05:00:00,48.3,44.6,30.12,West,263,0.0,6.0,87,0.00,,---,0.00,VWS V14.01,2013-01-07 10:00:00,
2013-01-07 05:01:00,48.3,44.6,30.12,West,263,0.0,0.0,87,0.00,,---,0.00,VWS V14.01,2013-01-07 10:01:00,
2013-01-07 05:06:00,48.2,44.8,30.12,West,270,0.0,1.0,88,0.00,,---,0.00,VWS V14.01,2013-01-07 10:06:00,
2013-01-07 05:11:00,48.2,44.8,30.12,West,270,0.0,1.0,88,0.00,,---,0.00,VWS V14.01,2013-01-07 10:11:00,
2013-01-07 05:16:00,48.0,44.6,30.12,West,270,0.0,1.0,88,0.00,,---,0.00,VWS V14.01,2013-01-07 10:16:00,
2013-01-07 05:21:00,48.0,44.6,30.12,West,270,1.0,1.0,88,0.00,,---,0.00,VWS V14.01,2013-01-07 10:21:00,
2013-01-07 05:26:00,48.0,44.6,30.12,West,261,0.0,2.0,88,0.00,,---,0.00,VWS V14.01,2013-01-07 10:26:00,
2013-01-07 05:30:00,48.0,44.3,30.13,West,263,0.0,2.0,87,0.00,,---,0.00,VWS V14.01,2013-01-07 10:30:00,
2013-01-07 05:31:00,48.0,44.3,30.13,West,263,0.0,0.0,87,0.00,,---,0.00,VWS V14.01,2013-01-07 10:31:00,
2013-01-07 05:36:00,47.9,44.2,30.13,West,263,0.0,0.0,87,0.00,,---,0.00,VWS V14.01,2013-01-07 10:36:00,
2013-01-07 05:41:00,47.9,44.2,30.13,West,263,0.0,0.0,87,0.00,,---,0.00,VWS V14.01,2013-01-07 10:41:00,
2013-01-07 05:46:00,47.7,44.0,30.14,West,263,0.0,0.0,87,0.00,,---,0.00,VWS V14.01,2013-01-07 10:46:00,
2013-01-07 05:51:00,47.7,44.0,30.14,West,263,0.0,0.0,87,0.00,,---,0.00,VWS V14.01,2013-01-07 10:51:00,
2013-01-07 05:56:00,47.6,44.2,30.14,West,263,0.0,0.0,88,0.00,,---,0.00,VWS V14.01,2013-01-07 10:56:00,
2013-01-07 06:00:00,47.6,43.9,30.14,West,263,0.0,0.0,87,0.00,,---,0.00,VWS V14.01,2013-01-07 11:00:00,
2013-01-07 06:01:00,47.6,43.9,30.14,West,263,0.0,0.0,87,0.00,,---,0.00,VWS V14.01,2013-01-07 11:01:00,
2013-01-07 06:06:00,47.6,43.9,30.14,West,263,1.0,2.0,87,0.00,,---,0.00,VWS V14.01,2013-01-07 11:06:00,
2013-01-07 06:11:00,47.6,43.9,30.14,West,263,0.0,2.0,87,0.00,,---,0.00,VWS V14.01,2013-01-07 11:11:00,
2013-01-07 06:16:00,47.6,43.6,30.15,West,263,0.0,2.0,86,0.00,,---,0.00,VWS V14.01,2013-01-07 11:16:00,
2013-01-07 06:21:00,47.7,43.7,30.15,West,263,0.0,2.0,86,0.00,,---,0.00,VWS V14.01,2013-01-07 11:21:00,
2013-01-07 06:26:00,47.7,43.7,30.15,West,263,0.0,2.0,86,0.00,,---,0.00,VWS V14.01,2013-01-07 11:26:00,
2013-01-07 06:30:00,47.6,43.6,30.15,West,263,0.0,2.0,86,0.00,,---,0.00,VWS V14.01,2013-01-07 11:30:00,
2013-01-07 06:31:00,47.6,43.6,30.15,West,263,0.0,0.0,86,0.00,,---,0.00,VWS V14.01,2013-01-07 11:31:00,
2013-01-07 06:36:00,47.4,43.7,30.15,West,263,0.0,0.0,87,0.00,,---,0.00,VWS V14.01,2013-01-07 11:36:00,
2013-01-07 06:41:00,47.4,43.7,30.15,WSW,258,0.0,0.0,87,0.00,,---,0.00,VWS V14.01,2013-01-07 11:41:00,
2013-01-07 06:46:00,47.4,43.7,30.15,WSW,258,0.0,0.0,87,0.00,,---,0.00,VWS V14.01,2013-01-07 11:46:00,
2013-01-07 06:51:00,47.4,43.7,30.15,WSW,258,0.0,0.0,87,0.00,,---,0.00,VWS V14.01,2013-01-07 11:51:00,
2013-01-07 06:56:00,47.4,43.7,30.15,WSW,258,0.0,2.0,87,0.00,,---,0.00,VWS V14.01,2013-01-07 11:56:00,
2013-01-07 07:00:00,47.4,43.7,30.16,WSW,258,0.0,2.0,87,0.00,,---,0.00,VWS V14.01,2013-01-07 12:00:00,
2013-01-07 07:01:00,47.4,43.7,30.16,WSW,258,0.0,0.0,87,0.00,,---,0.00,VWS V14.01,2013-01-07 12:01:00,
2013-01-07 07:06:00,47.4,43.7,30.16,WSW,258,0.0,0.0,87,0.00,,---,0.00,VWS V14.01,2013-01-07 12:06:00,
2013-01-07 07:11:00,47.4,43.7,30.16,WSW,258,0.0,0.0,87,0.00,,---,0.00,VWS V14.01,2013-01-07 12:11:00,
2013-01-07 07:16:00,47.4,44.0,30.16,WSW,258,0.0,0.0,88,0.00,,---,0.00,VWS V14.01,2013-01-07 12:16:00,
2013-01-07 07:21:00,47.4,44.0,30.16,WSW,258,0.0,0.0,88,0.00,,---,0.00,VWS V14.01,2013-01-07 12:21:00,
2013-01-07 07:26:00,47.4,44.0,30.16,WSW,258,0.0,0.0,88,0.00,,---,0.00,VWS V14.01,2013-01-07 12:26:00,
2013-01-07 07:30:00,47.4,44.0,30.17,WSW,258,0.0,0.0,88,0.00,,---,0.00,VWS V14.01,2013-01-07 12:30:00,
2013-01-07 07:31:00,47.4,44.0,30.17,WSW,258,0.0,0.0,88,0.00,,---,0.00,VWS V14.01,2013-01-07 12:31:00,
2013-01-07 07:36:00,47.4,44.3,30.17,WSW,258,0.0,0.0,89,0.00,,---,0.00,VWS V14.01,2013-01-07 12:36:00,
2013-01-07 07:41:00,47.6,44.5,30.17,WSW,258,0.0,0.0,89,0.00,,---,0.00,VWS V14.01,2013-01-07 12:41:00,
2013-01-07 07:46:00,47.6,44.5,30.17,WSW,258,0.0,0.0,89,0.00,,---,0.00,VWS V14.01,2013-01-07 12:46:00,
2013-01-07 07:51:00,47.7,44.9,30.17,WSW,258,0.0,1.0,90,0.00,,---,0.00,VWS V14.01,2013-01-07 12:51:00,
2013-01-07 07:56:00,47.7,44.6,30.17,WSW,258,0.0,1.0,89,0.00,,---,0.00,VWS V14.01,2013-01-07 12:56:00,
2013-01-07 08:00:00,47.7,44.6,30.17,WSW,258,0.0,2.0,89,0.00,,---,0.00,VWS V14.01,2013-01-07 13:00:00,
2013-01-07 08:01:00,47.7,44.6,30.17,WSW,258,0.0,0.0,89,0.00,,---,0.00,VWS V14.01,2013-01-07 13:01:00,
2013-01-07 08:06:00,47.7,44.9,30.17,WSW,258,0.0,0.0,90,0.00,,---,0.00,VWS V14.01,2013-01-07 13:06:00,
2013-01-07 08:11:00,47.7,44.9,30.17,WSW,258,0.0,1.0,90,0.00,,---,0.00,VWS V14.01,2013-01-07 13:11:00,
2013-01-07 08:16:00,47.7,45.2,30.18,WSW,258,0.0,1.0,91,0.00,,---,0.00,VWS V14.01,2013-01-07 13:16:00,
2013-01-07 08:21:00,47.9,45.4,30.18,WSW,258,0.0,1.0,91,0.00,,---,0.00,VWS V14.01,2013-01-07 13:21:00,
2013-01-07 08:26:00,48.3,46.1,30.18,WSW,258,0.0,1.0,92,0.00,,---,0.00,VWS V14.01,2013-01-07 13:26:00,
2013-01-07 08:30:00,48.6,46.4,30.18,West,260,0.0,1.0,92,0.00,,---,0.00,VWS V14.01,2013-01-07 13:30:00,
2013-01-07 08:31:00,48.8,46.6,30.18,West,260,0.0,2.0,92,0.00,,---,0.00,VWS V14.01,2013-01-07 13:31:00,
2013-01-07 08:36:00,49.2,46.7,30.18,WSW,258,0.0,2.0,91,0.00,,---,0.00,VWS V14.01,2013-01-07 13:36:00,
2013-01-07 08:41:00,49.5,47.0,30.18,WSW,258,0.0,2.0,91,0.00,,---,0.00,VWS V14.01,2013-01-07 13:41:00,
2013-01-07 08:46:00,49.8,47.3,30.18,NW,311,0.0,2.0,91,0.00,,---,0.00,VWS V14.01,2013-01-07 13:46:00,
2013-01-07 08:51:00,50.4,47.6,30.18,North,353,0.0,3.0,90,0.00,,---,0.00,VWS V14.01,2013-01-07 13:51:00,
2013-01-07 08:56:00,50.8,47.7,30.18,North,353,0.0,3.0,89,0.00,,---,0.00,VWS V14.01,2013-01-07 13:56:00,
2013-01-07 09:00:00,51.3,48.2,30.18,North,353,0.0,3.0,89,0.00,,---,0.00,VWS V14.01,2013-01-07 14:00:00,
2013-01-07 09:01:00,51.4,48.3,30.18,North,352,0.0,0.0,89,0.00,,---,0.00,VWS V14.01,2013-01-07 14:01:00,
2013-01-07 09:06:00,51.9,48.2,30.18,NNW,336,0.0,3.0,87,0.00,,---,0.00,VWS V14.01,2013-01-07 14:06:00,
2013-01-07 09:11:00,52.2,48.2,30.18,North,359,1.0,3.0,86,0.00,,---,0.00,VWS V14.01,2013-01-07 14:11:00,
2013-01-07 09:16:00,52.5,48.4,30.20,North,357,0.0,3.0,86,0.00,,---,0.00,VWS V14.01,2013-01-07 14:16:00,
2013-01-07 09:21:00,52.8,48.4,30.20,NNW,347,0.0,5.0,85,0.00,,---,0.00,VWS V14.01,2013-01-07 14:21:00,
2013-01-07 09:26:00,52.9,48.5,30.20,NNW,342,1.0,5.0,85,0.00,,---,0.00,VWS V14.01,2013-01-07 14:26:00,
2013-01-07 09:30:00,53.2,48.8,30.20,NW,326,0.0,5.0,85,0.00,,---,0.00,VWS V14.01,2013-01-07 14:30:00,
2013-01-07 09:31:00,53.2,48.8,30.20,North,352,5.0,6.0,85,0.00,,---,0.00,VWS V14.01,2013-01-07 14:31:00,
2013-01-07 09:36:00,53.5,49.1,30.20,NE,45,0.0,6.0,85,0.00,,---,0.00,VWS V14.01,2013-01-07 14:36:00,
2013-01-07 09:41:00,53.6,48.9,30.20,North,354,0.0,6.0,84,0.00,,---,0.00,VWS V14.01,2013-01-07 14:41:00,
2013-01-07 09:46:00,53.8,49.1,30.21,North,8,0.0,6.0,84,0.00,,---,0.00,VWS V14.01,2013-01-07 14:46:00,
2013-01-07 09:51:00,53.9,49.2,30.21,NNW,332,1.0,6.0,84,0.00,,---,0.00,VWS V14.01,2013-01-07 14:51:00,
2013-01-07 09:56:00,54.1,49.4,30.21,NNW,344,2.0,6.0,84,0.00,,---,0.00,VWS V14.01,2013-01-07 14:56:00,
2013-01-07 10:00:00,54.2,49.5,30.21,NNW,347,0.0,6.0,84,0.00,,---,0.00,VWS V14.01,2013-01-07 15:00:00,
2013-01-07 10:01:00,54.4,49.7,30.21,NNW,347,0.0,0.0,84,0.00,,---,0.00,VWS V14.01,2013-01-07 15:01:00,
2013-01-07 10:06:00,54.5,49.5,30.21,North,349,2.0,6.0,83,0.00,,---,0.00,VWS V14.01,2013-01-07 15:06:00,
2013-01-07 10:11:00,54.8,49.7,30.21,North,6,0.0,6.0,83,0.00,,---,0.00,VWS V14.01,2013-01-07 15:11:00,
2013-01-07 10:16:00,55.1,50.0,30.20,NNW,328,0.0,6.0,83,0.00,,---,0.00,VWS V14.01,2013-01-07 15:16:00,
2013-01-07 10:21:00,55.7,50.6,30.20,North,11,3.0,6.0,83,0.00,,---,0.00,VWS V14.01,2013-01-07 15:21:00,
2013-01-07 10:26:00,56.3,51.2,30.20,NNW,346,0.0,6.0,83,0.00,,---,0.00,VWS V14.01,2013-01-07 15:26:00,
2013-01-07 10:30:00,56.9,51.1,30.20,NNW,329,0.0,6.0,81,0.00,,---,0.00,VWS V14.01,2013-01-07 15:30:00,
2013-01-07 10:31:00,56.9,51.1,30.20,NNW,329,3.0,3.0,81,0.00,,---,0.00,VWS V14.01,2013-01-07 15:31:00,
2013-01-07 10:36:00,56.9,50.8,30.20,North,0,2.0,5.0,80,0.00,,---,0.00,VWS V14.01,2013-01-07 15:36:00,
2013-01-07 10:41:00,56.7,50.9,30.20,North,0,0.0,5.0,81,0.00,,---,0.00,VWS V14.01,2013-01-07 15:41:00,
2013-01-07 10:46:00,57.0,51.2,30.21,NE,49,0.0,5.0,81,0.00,,---,0.00,VWS V14.01,2013-01-07 15:46:00,
2013-01-07 10:51:00,57.0,51.2,30.21,NNW,342,0.0,5.0,81,0.00,,---,0.00,VWS V14.01,2013-01-07 15:51:00,
2013-01-07 10:56:00,57.0,51.2,30.21,NW,323,0.0,5.0,81,0.00,,---,0.00,VWS V14.01,2013-01-07 15:56:00,
2013-01-07 11:00:00,57.2,51.4,30.21,NNW,347,0.0,5.0,81,0.00,,---,0.00,VWS V14.01,2013-01-07 16:00:00,
2013-01-07 11:01:00,57.2,51.4,30.21,NNW,347,0.0,0.0,81,0.00,,---,0.00,VWS V14.01,2013-01-07 16:01:00,
2013-01-07 11:06:00,57.5,51.7,30.21,NNW,343,0.0,0.0,81,0.00,,---,0.00,VWS V14.01,2013-01-07 16:06:00,
2013-01-07 11:11:00,57.3,51.5,30.21,NNW,344,0.0,4.0,81,0.00,,---,0.00,VWS V14.01,2013-01-07 16:11:00,
2013-01-07 11:16:00,57.2,51.1,30.20,North,352,0.0,4.0,80,0.00,,---,0.00,VWS V14.01,2013-01-07 16:16:00,
2013-01-07 11:21:00,57.3,51.9,30.20,West,271,0.0,4.0,82,0.00,,---,0.00,VWS V14.01,2013-01-07 16:21:00,
2013-01-07 11:26:00,57.5,51.7,30.20,NW,311,0.0,4.0,81,0.00,,---,0.00,VWS V14.01,2013-01-07 16:26:00,
2013-01-07 11:30:00,58.0,52.2,30.20,NW,316,0.0,4.0,81,0.00,,---,0.00,VWS V14.01,2013-01-07 16:30:00,
2013-01-07 11:31:00,58.0,52.2,30.20,NW,319,0.0,0.0,81,0.00,,---,0.00,VWS V14.01,2013-01-07 16:31:00,
2013-01-07 11:36:00,58.1,52.0,30.20,NNW,335,0.0,3.0,80,0.00,,---,0.00,VWS V14.01,2013-01-07 16:36:00,
2013-01-07 11:41:00,58.4,52.3,30.20,North,357,0.0,3.0,80,0.00,,---,0.00,VWS V14.01,2013-01-07 16:41:00,
2013-01-07 11:46:00,58.6,52.5,30.19,NW,309,0.0,3.0,80,0.00,,---,0.00,VWS V14.01,2013-01-07 16:46:00,
2013-01-07 11:51:00,58.6,52.1,30.19,NW,316,0.0,3.0,79,0.00,,---,0.00,VWS V14.01,2013-01-07 16:51:00,
2013-01-07 11:56:00,58.7,52.2,30.19,NNW,329,0.0,3.0,79,0.00,,---,0.00,VWS V14.01,2013-01-07 16:56:00,
2013-01-07 12:00:00,58.9,52.4,30.19,NNW,344,0.0,3.0,79,0.00,,---,0.00,VWS V14.01,2013-01-07 17:00:00,
2013-01-07 12:01:00,58.9,52.1,30.19,NNW,344,0.0,0.0,78,0.00,,---,0.00,VWS V14.01,2013-01-07 17:01:00,
2013-01-07 12:06:00,59.2,52.7,30.19,North,356,0.0,1.0,79,0.00,,---,0.00,VWS V14.01,2013-01-07 17:06:00,
2013-01-07 12:11:00,59.6,52.7,30.19,North,0,2.0,3.0,78,0.00,,---,0.00,VWS V14.01,2013-01-07 17:11:00,
2013-01-07 12:16:00,59.8,52.9,30.17,North,4,0.0,3.0,78,0.00,,---,0.00,VWS V14.01,2013-01-07 17:16:00,
2013-01-07 12:21:00,59.9,52.7,30.17,North,0,0.0,3.0,77,0.00,,---,0.00,VWS V14.01,2013-01-07 17:21:00,
2013-01-07 12:26:00,60.1,52.9,30.17,North,357,0.0,3.0,77,0.00,,---,0.00,VWS V14.01,2013-01-07 17:26:00,
2013-01-07 12:30:00,60.1,52.5,30.18,North,352,0.0,5.0,76,0.00,,---,0.00,VWS V14.01,2013-01-07 17:30:00,
2013-01-07 12:31:00,60.1,52.5,30.18,NNW,347,0.0,0.0,76,0.00,,---,0.00,VWS V14.01,2013-01-07 17:31:00,
2013-01-07 12:36:00,60.1,52.5,30.18,NNW,335,0.0,3.0,76,0.00,,---,0.00,VWS V14.01,2013-01-07 17:36:00,
2013-01-07 12:41:00,59.9,52.3,30.18,WNW,294,0.0,4.0,76,0.00,,---,0.00,VWS V14.01,2013-01-07 17:41:00,
2013-01-07 12:46:00,59.8,52.6,30.17,North,357,1.0,5.0,77,0.00,,---,0.00,VWS V14.01,2013-01-07 17:46:00,
2013-01-07 12:51:00,59.8,52.6,30.17,North,0,0.0,5.0,77,0.00,,---,0.00,VWS V14.01,2013-01-07 17:51:00,
2013-01-07 12:56:00,59.8,52.6,30.17,NNW,337,0.0,5.0,77,0.00,,---,0.00,VWS V14.01,2013-01-07 17:56:00,
2013-01-07 13:00:00,59.8,52.6,30.16,NNW,346,0.0,5.0,77,0.00,,---,0.00,VWS V14.01,2013-01-07 18:00:00,
2013-01-07 13:01:00,59.8,52.6,30.16,NW,320,0.0,0.0,77,0.00,,---,0.00,VWS V14.01,2013-01-07 18:01:00,
2013-01-07 13:06:00,59.8,52.6,30.16,NW,309,0.0,2.0,77,0.00,,---,0.00,VWS V14.01,2013-01-07 18:06:00,
2013-01-07 13:11:00,59.6,52.7,30.16,NW,320,0.0,3.0,78,0.00,,---,0.00,VWS V14.01,2013-01-07 18:11:00,
2013-01-07 13:16:00,59.8,53.6,30.16,NW,320,0.0,3.0,80,0.00,,---,0.00,VWS V14.01,2013-01-07 18:16:00,
2013-01-07 13:21:00,59.6,53.1,30.16,North,352,0.0,3.0,79,0.00,,---,0.00,VWS V14.01,2013-01-07 18:21:00,
2013-01-07 13:26:00,59.3,53.1,30.16,North,357,0.0,3.0,80,0.00,,---,0.00,VWS V14.01,2013-01-07 18:26:00,
2013-01-07 13:30:00,59.3,53.1,30.15,North,357,0.0,3.0,80,0.00,,---,0.00,VWS V14.01,2013-01-07 18:30:00,
2013-01-07 13:31:00,59.3,53.1,30.15,North,357,0.0,0.0,80,0.00,,---,0.00,VWS V14.01,2013-01-07 18:31:00,
2013-01-07 13:36:00,59.5,53.7,30.15,North,357,0.0,2.0,81,0.00,,---,0.00,VWS V14.01,2013-01-07 18:36:00,
2013-01-07 13:41:00,60.2,54.4,30.15,North,356,2.0,3.0,81,0.00,,---,0.00,VWS V14.01,2013-01-07 18:41:00,
2013-01-07 13:46:00,60.9,54.0,30.15,North,359,0.0,6.0,78,0.00,,---,0.00,VWS V14.01,2013-01-07 18:46:00,
2013-01-07 13:51:00,61.3,53.7,30.15,NW,315,2.0,8.0,76,0.00,,---,0.00,VWS V14.01,2013-01-07 18:51:00,
2013-01-07 13:56:00,61.3,53.7,30.15,North,354,0.0,8.0,76,0.00,,---,0.00,VWS V14.01,2013-01-07 18:56:00,
2013-01-07 14:00:00,61.2,53.6,30.15,NNW,335,0.0,8.0,76,0.00,,---,0.00,VWS V14.01,2013-01-07 19:00:00,
2013-01-07 14:01:00,61.3,53.7,30.15,North,8,2.0,3.0,76,0.00,,---,0.00,VWS V14.01,2013-01-07 19:01:00,
2013-01-07 14:06:00,61.6,53.6,30.15,NW,315,0.0,3.0,75,0.00,,---,0.00,VWS V14.01,2013-01-07 19:06:00,
2013-01-07 14:11:00,61.5,53.5,30.15,NNW,344,2.0,5.0,75,0.00,,---,0.00,VWS V14.01,2013-01-07 19:11:00,
2013-01-07 14:16:00,61.8,53.8,30.15,WNW,298,0.0,5.0,75,0.00,,---,0.00,VWS V14.01,2013-01-07 19:16:00,
2013-01-07 14:21:00,62.1,53.7,30.15,North,0,0.0,5.0,74,0.00,,---,0.00,VWS V14.01,2013-01-07 19:21:00,
2013-01-07 14:26:00,62.3,53.9,30.15,North,354,0.0,5.0,74,0.00,,---,0.00,VWS V14.01,2013-01-07 19:26:00,
2013-01-07 14:30:00,62.4,54.0,30.15,NE,48,5.0,5.0,74,0.00,,---,0.00,VWS V14.01,2013-01-07 19:30:00,
2013-01-07 14:31:00,62.4,54.0,30.15,North,10,0.0,5.0,74,0.00,,---,0.00,VWS V14.01,2013-01-07 19:31:00,
2013-01-07 14:36:00,62.4,54.0,30.15,NW,306,0.0,5.0,74,0.00,,---,0.00,VWS V14.01,2013-01-07 19:36:00,
2013-01-07 14:41:00,62.4,53.6,30.15,North,10,0.0,5.0,73,0.00,,---,0.00,VWS V14.01,2013-01-07 19:41:00,
2013-01-07 14:46:00,62.3,53.5,30.16,North,353,4.0,7.0,73,0.00,,---,0.00,VWS V14.01,2013-01-07 19:46:00,
2013-01-07 14:51:00,62.0,54.0,30.16,NW,322,0.0,7.0,75,0.00,,---,0.00,VWS V14.01,2013-01-07 19:51:00,
2013-01-07 14:56:00,61.8,53.4,30.16,NW,320,0.0,7.0,74,0.00,,---,0.00,VWS V14.01,2013-01-07 19:56:00,
2013-01-07 15:00:00,62.0,53.6,30.16,WNW,285,5.0,7.0,74,0.00,,---,0.00,VWS V14.01,2013-01-07 20:00:00,
2013-01-07 15:01:00,61.8,53.4,30.16,West,281,2.0,5.0,74,0.00,,---,0.00,VWS V14.01,2013-01-07 20:01:00,
2013-01-07 15:06:00,61.8,53.4,30.16,NW,319,0.0,6.0,74,0.00,,---,0.00,VWS V14.01,2013-01-07 20:06:00,
2013-01-07 15:11:00,61.8,53.1,30.16,North,0,1.0,8.0,73,0.00,,---,0.00,VWS V14.01,2013-01-07 20:11:00,
2013-01-07 15:16:00,61.8,53.4,30.16,North,8,0.0,8.0,74,0.00,,---,0.00,VWS V14.01,2013-01-07 20:16:00,
2013-01-07 15:19:00,61.6,52.5,30.16,NNW,344,0.0,8.0,72,0.00,,---,0.00,VWS V14.01,2013-01-07 20:19:00,
2013-01-07 15:24:00,61.5,52.4,30.16,NNW,343,0.0,9.0,72,0.00,,---,0.00,VWS V14.01,2013-01-07 20:24:00,
2013-01-07 15:29:00,61.2,51.7,30.16,NNW,333,0.0,9.0,71,0.00,,---,0.00,VWS V14.01,2013-01-07 20:29:00,
2013-01-07 15:30:00,61.0,51.9,30.16,NW,326,0.0,9.0,72,0.00,,---,0.00,VWS V14.01,2013-01-07 20:30:00,
2013-01-07 15:34:00,60.7,52.4,30.16,NW,304,0.0,5.0,74,0.00,,---,0.00,VWS V14.01,2013-01-07 20:34:00,
2013-01-07 15:39:00,60.5,52.5,30.16,West,280,0.0,5.0,75,0.00,,---,0.00,VWS V14.01,2013-01-07 20:39:00,
2013-01-07 15:44:00,60.4,52.8,30.16,West,271,1.0,5.0,76,0.00,,---,0.00,VWS V14.01,2013-01-07 20:44:00,
2013-01-07 15:49:00,60.4,53.2,30.16,WNW,291,1.0,5.0,77,0.00,,---,0.00,VWS V14.01,2013-01-07 20:49:00,
2013-01-07 15:54:00,60.4,53.2,30.16,West,271,0.0,8.0,77,0.00,,---,0.00,VWS V14.01,2013-01-07 20:54:00,
2013-01-07 15:59:00,59.9,52.3,30.17,NNW,328,0.0,8.0,76,0.00,,---,0.00,VWS V14.01,2013-01-07 20:59:00,
2013-01-07 16:00:00,59.9,52.7,30.17,NNE,17,0.0,8.0,77,0.00,,---,0.00,VWS V14.01,2013-01-07 21:00:00,
2013-01-07 16:04:00,59.5,52.6,30.17,North,0,0.0,3.0,78,0.00,,---,0.00,VWS V14.01,2013-01-07 21:04:00,
2013-01-07 16:09:00,58.9,52.8,30.17,NW,323,0.0,5.0,80,0.00,,---,0.00,VWS V14.01,2013-01-07 21:09:00,
2013-01-07 16:14:00,58.4,52.6,30.16,NW,322,0.0,5.0,81,0.00,,---,0.00,VWS V14.01,2013-01-07 21:14:00,
2013-01-07 16:19:00,58.3,52.8,30.16,ENE,58,0.0,5.0,82,0.00,,---,0.00,VWS V14.01,2013-01-07 21:19:00,
2013-01-07 16:24:00,58.1,52.6,30.16,NNE,18,0.0,8.0,82,0.00,,---,0.00,VWS V14.01,2013-01-07 21:24:00,
2013-01-07 16:29:00,58.0,52.5,30.17,NW,318,0.0,8.0,82,0.00,,---,0.00,VWS V14.01,2013-01-07 21:29:00,
2013-01-07 16:30:00,58.0,52.5,30.17,NW,316,0.0,8.0,82,0.00,,---,0.00,VWS V14.01,2013-01-07 21:30:00,
2013-01-07 16:34:00,57.8,52.7,30.17,NW,318,0.0,4.0,83,0.00,,---,0.00,VWS V14.01,2013-01-07 21:34:00,
2013-01-07 16:39:00,57.6,52.5,30.17,NE,47,0.0,4.0,83,0.00,,---,0.00,VWS V14.01,2013-01-07 21:39:00,
2013-01-07 16:44:00,57.5,52.7,30.16,West,274,0.0,4.0,84,0.00,,---,0.00,VWS V14.01,2013-01-07 21:44:00,
2013-01-07 16:49:00,57.3,52.5,30.16,NNW,332,0.0,5.0,84,0.00,,---,0.00,VWS V14.01,2013-01-07 21:49:00,
2013-01-07 16:54:00,57.3,52.5,30.16,West,280,0.0,5.0,84,0.00,,---,0.00,VWS V14.01,2013-01-07 21:54:00,
2013-01-07 16:59:00,57.2,52.4,30.16,NNE,31,0.0,5.0,84,0.00,,---,0.00,VWS V14.01,2013-01-07 21:59:00,
2013-01-07 17:00:00,57.2,52.4,30.16,NNE,31,0.0,5.0,84,0.00,,---,0.00,VWS V14.01,2013-01-07 22:00:00,
2013-01-07 17:04:00,57.0,52.5,30.16,NW,326,0.0,0.0,85,0.00,,---,0.00,VWS V14.01,2013-01-07 22:04:00,
2013-01-07 17:09:00,56.9,52.4,30.16,NNW,344,0.0,2.0,85,0.00,,---,0.00,VWS V14.01,2013-01-07 22:09:00,
2013-01-07 17:14:00,56.7,52.6,30.16,NNW,342,0.0,2.0,86,0.00,,---,0.00,VWS V14.01,2013-01-07 22:14:00,
2013-01-07 17:19:00,56.7,52.6,30.16,NNW,342,0.0,2.0,86,0.00,,---,0.00,VWS V14.01,2013-01-07 22:19:00,
2013-01-07 17:24:00,56.6,52.5,30.16,North,0,0.0,2.0,86,0.00,,---,0.00,VWS V14.01,2013-01-07 22:24:00,
2013-01-07 17:29:00,56.5,52.7,30.16,NW,311,0.0,2.0,87,0.00,,---,0.00,VWS V14.01,2013-01-07 22:29:00,
2013-01-07 17:30:00,56.5,52.7,30.16,NW,316,0.0,2.0,87,0.00,,---,0.00,VWS V14.01,2013-01-07 22:30:00,
2013-01-07 17:34:00,56.5,52.7,30.16,NNW,347,0.0,1.0,87,0.00,,---,0.00,VWS V14.01,2013-01-07 22:34:00,
2013-01-07 17:39:00,56.3,52.5,30.16,North,8,0.0,1.0,87,0.00,,---,0.00,VWS V14.01,2013-01-07 22:39:00,
2013-01-07 17:44:00,56.3,52.8,30.17,NNW,344,0.0,5.0,88,0.00,,---,0.00,VWS V14.01,2013-01-07 22:44:00,
2013-01-07 17:49:00,56.3,52.8,30.17,NNW,344,0.0,5.0,88,0.00,,---,0.00,VWS V14.01,2013-01-07 22:49:00,
2013-01-07 17:54:00,56.3,52.8,30.17,WNW,301,0.0,5.0,88,0.00,,---,0.00,VWS V14.01,2013-01-07 22:54:00,
2013-01-07 17:59:00,56.3,52.8,30.17,NW,309,0.0,5.0,88,0.00,,---,0.00,VWS V14.01,2013-01-07 22:59:00,
2013-01-07 18:00:00,56.3,52.8,30.17,NW,309,0.0,5.0,88,0.00,,---,0.00,VWS V14.01,2013-01-07 23:00:00,
2013-01-07 18:04:00,56.2,53.0,30.17,NW,309,0.0,0.0,89,0.00,,---,0.00,VWS V14.01,2013-01-07 23:04:00,
2013-01-07 18:09:00,56.2,53.0,30.17,NW,309,0.0,0.0,89,0.00,,---,0.00,VWS V14.01,2013-01-07 23:09:00,
2013-01-07 18:14:00,56.2,53.0,30.17,NW,309,0.0,0.0,89,0.00,,---,0.00,VWS V14.01,2013-01-07 23:14:00,
2013-01-07 18:19:00,56.2,53.0,30.17,North,359,0.0,0.0,89,0.00,,---,0.00,VWS V14.01,2013-01-07 23:19:00,
2013-01-07 18:24:00,56.3,53.1,30.17,North,354,0.0,0.0,89,0.00,,---,0.00,VWS V14.01,2013-01-07 23:24:00,
2013-01-07 18:29:00,56.3,53.1,30.17,North,356,0.0,0.0,89,0.00,,---,0.00,VWS V14.01,2013-01-07 23:29:00,
2013-01-07 18:30:00,56.3,53.1,30.17,WNW,299,0.0,0.0,89,0.00,,---,0.00,VWS V14.01,2013-01-07 23:30:00,
2013-01-07 18:34:00,56.5,53.0,30.17,WNW,302,0.0,0.0,88,0.00,,---,0.00,VWS V14.01,2013-01-07 23:34:00,
2013-01-07 18:39:00,56.5,53.0,30.17,NW,325,0.0,0.0,88,0.00,,---,0.00,VWS V14.01,2013-01-07 23:39:00,
2013-01-07 18:44:00,56.7,52.9,30.18,NW,309,0.0,2.0,87,0.00,,---,0.00,VWS V14.01,2013-01-07 23:44:00,
2013-01-07 18:49:00,56.9,53.1,30.18,NNW,342,0.0,2.0,87,0.00,,---,0.00,VWS V14.01,2013-01-07 23:49:00,
2013-01-07 18:54:00,57.0,52.9,30.18,NNW,336,0.0,2.0,86,0.00,,---,0.00,VWS V14.01,2013-01-07 23:54:00,
2013-01-07 18:59:00,57.0,52.9,30.18,North,350,0.0,2.0,86,0.00,,---,0.00,VWS V14.01,2013-01-07 23:59:00,
2013-01-07 19:00:00,57.0,52.9,30.18,North,350,0.0,2.0,86,0.00,,---,0.00,VWS V14.01,2013-01-08 00:00:00,
2013-01-07 19:04:00,57.0,52.9,30.18,NNW,344,0.0,2.0,86,0.00,,---,0.00,VWS V14.01,2013-01-08 00:04:00,
2013-01-07 19:09:00,57.2,53.1,30.18,NNW,336,0.0,2.0,86,0.00,,---,0.00,VWS V14.01,2013-01-08 00:09:00,
2013-01-07 19:14:00,57.2,53.1,30.18,North,349,0.0,2.0,86,0.00,,---,0.00,VWS V14.01,2013-01-08 00:14:00,
2013-01-07 19:19:00,57.2,53.1,30.18,North,349,0.0,2.0,86,0.00,,---,0.00,VWS V14.01,2013-01-08 00:19:00,
2013-01-07 19:24:00,57.2,53.1,30.18,NNW,336,0.0,2.0,86,0.00,,---,0.00,VWS V14.01,2013-01-08 00:24:00,
2013-01-07 19:29:00,57.2,53.1,30.18,WNW,285,0.0,2.0,86,0.00,,---,0.00,VWS V14.01,2013-01-08 00:29:00,
2013-01-07 19:30:00,57.2,53.1,30.18,WNW,298,0.0,2.0,86,0.00,,---,0.00,VWS V14.01,2013-01-08 00:30:00,
2013-01-07 19:34:00,57.3,53.2,30.18,WNW,299,0.0,0.0,86,0.00,,---,0.00,VWS V14.01,2013-01-08 00:34:00,
2013-01-07 19:39:00,57.3,53.2,30.18,NW,318,0.0,0.0,86,0.00,,---,0.00,VWS V14.01,2013-01-08 00:39:00,
2013-01-07 19:44:00,57.3,53.2,30.18,WNW,298,0.0,1.0,86,0.00,,---,0.00,VWS V14.01,2013-01-08 00:44:00,
2013-01-07 19:49:00,57.3,53.2,30.18,NW,309,0.0,1.0,86,0.00,,---,0.00,VWS V14.01,2013-01-08 00:49:00,
2013-01-07 19:54:00,57.3,53.2,30.18,North,349,0.0,1.0,86,0.00,,---,0.00,VWS V14.01,2013-01-08 00:54:00,
2013-01-07 19:59:00,57.3,53.2,30.18,NW,316,0.0,1.0,86,0.00,,---,0.00,VWS V14.01,2013-01-08 00:59:00,
2013-01-07 20:00:00,57.3,53.2,30.18,NW,316,0.0,1.0,86,0.00,,---,0.00,VWS V14.01,2013-01-08 01:00:00,
2013-01-07 20:04:00,57.3,53.2,30.18,NNW,330,0.0,1.0,86,0.00,,---,0.00,VWS V14.01,2013-01-08 01:04:00,
2013-01-07 20:09:00,57.3,53.2,30.18,North,352,0.0,2.0,86,0.00,,---,0.00,VWS V14.01,2013-01-08 01:09:00,
2013-01-07 20:14:00,57.5,53.3,30.18,North,352,0.0,2.0,86,0.00,,---,0.00,VWS V14.01,2013-01-08 01:14:00,
2013-01-07 20:19:00,57.5,53.3,30.18,NW,311,0.0,2.0,86,0.00,,---,0.00,VWS V14.01,2013-01-08 01:19:00,
2013-01-07 20:24:00,57.5,53.7,30.18,NNW,339,0.0,2.0,87,0.00,,---,0.00,VWS V14.01,2013-01-08 01:24:00,
2013-01-07 20:29:00,57.5,53.7,30.18,NNW,336,0.0,2.0,87,0.00,,---,0.00,VWS V14.01,2013-01-08 01:29:00,
2013-01-07 20:30:00,57.5,53.7,30.18,NNW,336,0.0,2.0,87,0.00,,---,0.00,VWS V14.01,2013-01-08 01:30:00,
2013-01-07 20:34:00,57.5,53.7,30.18,NNW,336,0.0,0.0,87,0.00,,---,0.00,VWS V14.01,2013-01-08 01:34:00,
2013-01-07 20:39:00,57.6,53.8,30.18,WNW,289,0.0,0.0,87,0.00,,---,0.00,VWS V14.01,2013-01-08 01:39:00,
2013-01-07 20:44:00,57.6,53.8,30.18,NW,325,0.0,1.0,87,0.00,,---,0.00,VWS V14.01,2013-01-08 01:44:00,
2013-01-07 20:49:00,57.6,53.8,30.18,NNW,337,0.0,1.0,87,0.00,,---,0.00,VWS V14.01,2013-01-08 01:49:00,
2013-01-07 20:54:00,57.6,53.8,30.18,NNW,328,0.0,1.0,87,0.00,,---,0.00,VWS V14.01,2013-01-08 01:54:00,
2013-01-07 20:59:00,57.6,53.8,30.18,North,354,0.0,2.0,87,0.00,,---,0.00,VWS V14.01,2013-01-08 01:59:00,
2013-01-07 21:00:00,57.6,53.8,30.18,NW,322,0.0,2.0,87,0.00,,---,0.00,VWS V14.01,2013-01-08 02:00:00,
2013-01-07 21:04:00,57.6,53.8,30.18,WNW,299,0.0,1.0,87,0.00,,---,0.00,VWS V14.01,2013-01-08 02:04:00,
2013-01-07 21:09:00,57.6,53.8,30.18,North,354,0.0,2.0,87,0.00,,---,0.00,VWS V14.01,2013-01-08 02:09:00,
2013-01-07 21:14:00,57.6,53.8,30.18,NNW,342,0.0,2.0,87,0.00,,---,0.00,VWS V14.01,2013-01-08 02:14:00,
2013-01-07 21:19:00,57.6,53.8,30.18,NW,322,0.0,2.0,87,0.00,,---,0.00,VWS V14.01,2013-01-08 02:19:00,
2013-01-07 21:24:00,57.6,53.8,30.18,NNE,16,0.0,2.0,87,0.00,,---,0.00,VWS V14.01,2013-01-08 02:24:00,
2013-01-07 21:29:00,57.6,53.8,30.17,NNE,23,0.0,2.0,87,0.00,,---,0.00,VWS V14.01,2013-01-08 02:29:00,
2013-01-07 21:30:00,57.6,53.8,30.17,North,356,0.0,2.0,87,0.00,,---,0.00,VWS V14.01,2013-01-08 02:30:00,
2013-01-07 21:34:00,57.6,53.8,30.17,WNW,298,1.0,1.0,87,0.00,,---,0.00,VWS V14.01,2013-01-08 02:34:00,
2013-01-07 21:39:00,57.6,53.8,30.17,NNW,342,0.0,1.0,87,0.00,,---,0.00,VWS V14.01,2013-01-08 02:39:00,
2013-01-07 21:44:00,57.6,53.8,30.17,NNW,342,0.0,1.0,87,0.00,,---,0.00,VWS V14.01,2013-01-08 02:44:00,
2013-01-07 21:49:00,57.8,54.0,30.17,North,0,0.0,3.0,87,0.00,,---,0.00,VWS V14.01,2013-01-08 02:49:00,
2013-01-07 21:54:00,58.0,54.2,30.17,North,349,0.0,3.0,87,0.00,,---,0.00,VWS V14.01,2013-01-08 02:54:00,
2013-01-07 21:59:00,58.0,53.8,30.17,NW,318,0.0,3.0,86,0.00,,---,0.00,VWS V14.01,2013-01-08 02:59:00,
2013-01-07 22:00:00,58.0,53.8,30.17,NW,318,0.0,3.0,86,0.00,,---,0.00,VWS V14.01,2013-01-08 03:00:00,
2013-01-07 22:04:00,58.1,53.9,30.17,NNW,343,0.0,0.0,86,0.00,,---,0.00,VWS V14.01,2013-01-08 03:04:00,
2013-01-07 22:09:00,58.1,53.9,30.17,NNW,344,0.0,0.0,86,0.00,,---,0.00,VWS V14.01,2013-01-08 03:09:00,
2013-01-07 22:14:00,58.3,54.5,30.17,NNW,344,0.0,0.0,87,0.00,,---,0.00,VWS V14.01,2013-01-08 03:14:00,
2013-01-07 22:19:00,58.3,54.5,30.17,NNW,344,0.0,1.0,87,0.00,,---,0.00,VWS V14.01,2013-01-08 03:19:00,
2013-01-07 22:24:00,58.3,54.5,30.17,NNE,25,0.0,5.0,87,0.00,,---,0.00,VWS V14.01,2013-01-08 03:24:00,
2013-01-07 22:29:00,58.3,54.5,30.17,NNE,25,0.0,5.0,87,0.00,,---,0.00,VWS V14.01,2013-01-08 03:29:00,
2013-01-07 22:30:00,58.3,54.5,30.17,NNE,25,0.0,5.0,87,0.00,,---,0.00,VWS V14.01,2013-01-08 03:30:00,
2013-01-07 22:34:00,58.3,54.5,30.17,NNE,25,0.0,0.0,87,0.00,,---,0.00,VWS V14.01,2013-01-08 03:34:00,
2013-01-07 22:39:00,58.3,54.8,30.17,NNE,25,0.0,0.0,88,0.00,,---,0.00,VWS V14.01,2013-01-08 03:39:00,
2013-01-07 22:44:00,58.1,54.6,30.17,North,0,0.0,1.0,88,0.00,,---,0.00,VWS V14.01,2013-01-08 03:44:00,
2013-01-07 22:49:00,58.0,54.8,30.17,North,0,0.0,1.0,89,0.00,,---,0.00,VWS V14.01,2013-01-08 03:49:00,
2013-01-07 22:54:00,58.0,54.8,30.17,North,0,0.0,1.0,89,0.00,,---,0.00,VWS V14.01,2013-01-08 03:54:00,
2013-01-07 22:59:00,58.0,55.1,30.17,North,0,0.0,1.0,90,0.00,,---,0.00,VWS V14.01,2013-01-08 03:59:00,
2013-01-07 23:00:00,58.0,55.1,30.17,North,0,0.0,1.0,90,0.00,,---,0.00,VWS V14.01,2013-01-08 04:00:00,
2013-01-07 23:04:00,58.0,55.1,30.17,North,0,0.0,1.0,90,0.00,,---,0.00,VWS V14.01,2013-01-08 04:04:00,
2013-01-07 23:09:00,58.0,55.1,30.17,North,0,0.0,1.0,90,0.00,,---,0.00,VWS V14.01,2013-01-08 04:09:00,
2013-01-07 23:14:00,58.1,55.2,30.16,North,0,0.0,1.0,90,0.00,,---,0.00,VWS V14.01,2013-01-08 04:14:00,
2013-01-07 23:19:00,58.1,55.2,30.16,North,0,0.0,1.0,90,0.00,,---,0.00,VWS V14.01,2013-01-08 04:19:00,
2013-01-07 23:24:00,58.1,54.9,30.16,North,0,0.0,1.0,89,0.00,,---,0.00,VWS V14.01,2013-01-08 04:24:00,
2013-01-07 23:29:00,58.1,54.9,30.15,North,0,0.0,1.0,89,0.00,,---,0.00,VWS V14.01,2013-01-08 04:29:00,
2013-01-07 23:30:00,58.1,54.9,30.15,North,0,0.0,1.0,89,0.00,,---,0.00,VWS V14.01,2013-01-08 04:30:00,
2013-01-07 23:34:00,58.1,54.9,30.15,North,0,0.0,0.0,89,0.00,,---,0.00,VWS V14.01,2013-01-08 04:34:00,
2013-01-07 23:39:00,58.1,55.2,30.15,North,0,0.0,0.0,90,0.00,,---,0.00,VWS V14.01,2013-01-08 04:39:00,
2013-01-07 23:44:00,58.1,55.2,30.15,North,0,0.0,0.0,90,0.00,,---,0.00,VWS V14.01,2013-01-08 04:44:00,
2013-01-07 23:49:00,58.0,55.1,30.15,North,0,0.0,0.0,90,0.00,,---,0.00,VWS V14.01,2013-01-08 04:49:00,
2013-01-07 23:54:00,58.0,55.1,30.15,North,0,0.0,0.0,90,0.00,,---,0.00,VWS V14.01,2013-01-08 04:54:00,
2013-01-07 23:59:00,58.0,55.4,30.14,North,0,0.0,0.0,91,0.00,,---,0.00,VWS V14.01,2013-01-08 04:59:00,